User: anonymous   Login
Location: Guayaquil
(2.1667°S, 79.9000°W)
Time: 12:25:21
(UTC-05:00)
Language:

NEE 01 PEGASUS - Orbit

View from above orbital plane
View from above orbital plane
View from above satellite
View from above satellite

Ground track
Ground track

The orbit data is extracted from the following two-line orbital elements,

1 39151U 13018B   19017.22306930  .00000090  00000-0  18910-4 0  9997
2 39151  97.9733 114.7870 0016457 340.0122  20.0443 14.79988828309179
Epoch (UTC): 17 January 2019 05:21:13
Eccentricity: 0.0016457
inclination: 97.9733°
perigee height: 618 km
apogee height: 641 km
right ascension of ascending node: 114.7870°
argument of perigee: 340.0122°
revolutions per day: 14.79988828
mean anomaly at epoch: 20.0443°
orbit number at epoch: 30917

The dashed part of the orbit path shows where the satellite is in the earth's shadow,  

DLR